STARLINK-34125

Last updated on Mon Jun 09 2025 00:02:04 GMT+0000 (Coordinated Universal Time)

1 63901U 25095M 25158.81215220 -.00308726 00000+0 -62372-2 0 9991 2 63901 42.9986 289.0335 0001900 240.9364 119.1304 15.46835792 5731
UTC large
Height (km)
Speed (km/s)
/
Latitude / Longitude
Inclination (degrees)
Orbital Period (minutes)
Azimuth
Elevation
Range (km)
Doppler Factor

Next 0 passes for location: London (51.5072 / 0.1276)

Sorry there are no passes over London.